Location: Gull Harbor
(47.1000°N, 122.9000°W)
Time: 00:09:07
(UTC-08:00)

X-37B - Visible Passes

Search period start: 21 January 2021 00:00
Search period end: 31 January 2021 00:00
Orbit: 384 x 390 km, 45.0° (Epoch: 02 January)

Date Brightness Start Highest point End Pass type
(mag) Time Alt. Az. Time Alt. Az. Time Alt. Az.
21 Jan 2.4 17:46:05 10° SSW 17:48:36 21° SSE 17:51:07 10° ESE visible
21 Jan 2.6 19:21:44 10° WSW 19:23:27 28° SW 19:23:27 28° SW visible
22 Jan 1.3 18:23:24 10° WSW 18:26:27 42° SSE 18:27:40 28° ESE visible
22 Jan 4.1 19:59:44 10° W 19:59:57 11° W 19:59:57 11° W visible
23 Jan 1.1 19:01:19 10° WSW 19:04:08 55° SSW 19:04:08 55° SSW visible
24 Jan 1.1 18:02:54 10° WSW 18:06:01 53° S 18:08:20 16° E visible
24 Jan 3.2 19:39:22 10° W 19:40:37 21° W 19:40:37 21° W visible
25 Jan 0.9 18:40:54 10° W 18:44:03 59° S 18:44:50 43° SE visible
26 Jan 1.0 17:42:28 10° WSW 17:45:37 59° S 17:48:46 10° E visible
26 Jan 2.1 19:19:01 10° W 19:21:23 35° SW 19:21:23 35° SW visible
27 Jan 1.2 18:20:32 10° W 18:23:39 52° S 18:25:42 19° ESE visible
27 Jan 3.9 19:57:27 10° WSW 19:57:59 13° WSW 19:57:59 13° WSW visible
28 Jan 2.1 18:58:45 10° W 19:01:35 29° SSW 19:02:23 26° S visible
29 Jan 1.7 18:00:11 10° W 18:03:13 40° SSW 18:06:15 10° SE visible
29 Jan 3.5 19:37:42 10° WSW 19:39:12 13° SW 19:39:12 13° SW visible
30 Jan 3.0 18:38:36 10° WSW 18:41:04 20° SSW 18:43:30 10° SSE visible
